When you browse on this site, cookies collect data to enhance your experience and personalize the content and advertising you see.
Visit our Privacy Policy to learn more. By continuing to use the site, you agree to this use of cookies and data.
  • în România
  • Lista ţărilor
  • Pe 7 zile
  • Temperatura apei
  • Meteo pe hartă
  • Widget-uri
  • user-avatar
    Intrare

    Meteo pe oră la Kerewan

    Astăzi, 7 Decembrie, Sâmbătă

    Timp Temperatura Precipitaţii Vânt Presiune Umiditate
    00:00 +21°C° 0 mm 3 m/s 758 mmHg 35%
    01:00 +20°C° 0 mm 3 m/s 757 mmHg 36%
    02:00 +20°C° 0 mm 3 m/s 757 mmHg 36%
    03:00 +19°C° 0 mm 3 m/s 757 mmHg 37%
    04:00 +19°C° 0 mm 3 m/s 757 mmHg 37%
    05:00 +19°C° 0 mm 2 m/s 758 mmHg 35%
    06:00 +20°C° 0 mm 3 m/s 758 mmHg 33%
    07:00 +21°C° 0 mm 3 m/s 758 mmHg 30%
    08:00 +23°C° 0 mm 4 m/s 759 mmHg 28%
    09:00 +27°C° 0 mm 4 m/s 759 mmHg 24%
    10:00 +29°C° 0 mm 4 m/s 758 mmHg 20%
    11:00 +33°C° 0 mm 4 m/s 758 mmHg 16%
    12:00 +34°C° 0 mm 4 m/s 758 mmHg 15%
    13:00 +36°C° 0 mm 3 m/s 757 mmHg 14%
    14:00 +37°C° 0 mm 3 m/s 756 mmHg 12%
    15:00 +36°C° 0 mm 3 m/s 756 mmHg 14%
    16:00 +35°C° 0 mm 3 m/s 756 mmHg 15%
    17:00 +34°C° 0 mm 3 m/s 756 mmHg 16%
    18:00 +31°C° 0 mm 3 m/s 757 mmHg 20%
    19:00 +29°C° 0 mm 3 m/s 757 mmHg 25%
    20:00 +26°C° 0 mm 3 m/s 758 mmHg 29%
    21:00 +26°C° 0 mm 3 m/s 758 mmHg 27%
    22:00 +25°C° 0 mm 3 m/s 758 mmHg 24%
    23:00 +25°C° 0 mm 3 m/s 758 mmHg 22%

    Mâine, 8 Decembrie, Duminică

    Timp Temperatura Precipitaţii Vânt Presiune Umiditate
    00:00 +25°C° 0 mm 3 m/s 757 mmHg 22%
    01:00 +24°C° 0 mm 3 m/s 757 mmHg 22%
    02:00 +24°C° 0 mm 3 m/s 757 mmHg 22%
    03:00 +22°C° 0 mm 3 m/s 757 mmHg 24%
    04:00 +22°C° 0 mm 3 m/s 757 mmHg 26%
    05:00 +21°C° 0 mm 3 m/s 757 mmHg 28%
    06:00 +22°C° 0 mm 4 m/s 757 mmHg 27%
    07:00 +25°C° 0 mm 4 m/s 758 mmHg 26%
    08:00 +26°C° 0 mm 5 m/s 758 mmHg 25%
    09:00 +28°C° 0 mm 5 m/s 758 mmHg 22%
    10:00 +32°C° 0 mm 5 m/s 758 mmHg 18%
    11:00 +35°C° 0 mm 5 m/s 758 mmHg 14%
    12:00 +36°C° 0 mm 4 m/s 757 mmHg 13%
    13:00 +38°C° 0 mm 4 m/s 756 mmHg 12%
    14:00 +40°C° 0 mm 4 m/s 755 mmHg 11%
    15:00 +38°C° 0 mm 3 m/s 755 mmHg 13%
    16:00 +37°C° 0 mm 3 m/s 755 mmHg 14%
    17:00 +36°C° 0 mm 3 m/s 755 mmHg 15%
    18:00 +34°C° 0 mm 3 m/s 756 mmHg 19%
    19:00 +30°C° 0 mm 3 m/s 756 mmHg 23%
    20:00 +28°C° 0 mm 3 m/s 757 mmHg 27%
    21:00 +27°C° 0 mm 3 m/s 757 mmHg 28%
    22:00 +26°C° 0 mm 3 m/s 757 mmHg 28%
    23:00 +25°C° 0 mm 3 m/s 757 mmHg 28%

    Poimâine, 9 Decembrie, Luni

    Timp Temperatura Precipitaţii Vânt Presiune Umiditate
    00:00 +25°C° 0 mm 3 m/s 756 mmHg 28%
    01:00 +25°C° 0 mm 3 m/s 756 mmHg 28%
    02:00 +24°C° 0 mm 3 m/s 756 mmHg 28%
    03:00 +24°C° 0 mm 3 m/s 756 mmHg 28%
    04:00 +22°C° 0 mm 3 m/s 756 mmHg 29%
    05:00 +22°C° 0 mm 3 m/s 756 mmHg 29%
    06:00 +24°C° 0 mm 3 m/s 757 mmHg 27%
    07:00 +25°C° 0 mm 4 m/s 757 mmHg 26%
    08:00 +27°C° 0 mm 4 m/s 758 mmHg 24%
    09:00 +30°C° 0 mm 5 m/s 758 mmHg 19%
    10:00 +34°C° 0 mm 5 m/s 757 mmHg 15%
    11:00 +39°C° 0 mm 5 m/s 757 mmHg 10%
    12:00 +40°C° 0 mm 5 m/s 756 mmHg 9%
    13:00 +41°C° 0 mm 5 m/s 755 mmHg 8%
    14:00 +42°C° 0 mm 4 m/s 755 mmHg 7%
    15:00 +40°C° 0 mm 3 m/s 755 mmHg 8%
    16:00 +38°C° 0 mm 2 m/s 754 mmHg 9%
    17:00 +37°C° 0 mm 2 m/s 754 mmHg 10%
    18:00 +35°C° 0 mm 2 m/s 755 mmHg 15%
    19:00 +31°C° 0 mm 2 m/s 755 mmHg 19%
    20:00 +29°C° 0 mm 2 m/s 756 mmHg 24%
    21:00 +28°C° 0 mm 3 m/s 756 mmHg 22%
    22:00 +27°C° 0 mm 3 m/s 756 mmHg 21%
    23:00 +26°C° 0 mm 3 m/s 757 mmHg 20%

    10 Decembrie, Marţi

    Timp Temperatura Precipitaţii Vânt Presiune Umiditate
    00:00 +26°C° 0 mm 3 m/s 756 mmHg 22%
    01:00 +25°C° 0 mm 3 m/s 756 mmHg 23%
    02:00 +24°C° 0 mm 2 m/s 756 mmHg 25%
    03:00 +24°C° 0 mm 2 m/s 756 mmHg 24%
    04:00 +24°C° 0 mm 2 m/s 756 mmHg 23%
    05:00 +23°C° 0 mm 2 m/s 756 mmHg 21%
    06:00 +24°C° 0 mm 3 m/s 756 mmHg 20%
    07:00 +26°C° 0 mm 3 m/s 757 mmHg 18%
    08:00 +27°C° 0 mm 3 m/s 757 mmHg 16%
    09:00 +30°C° 0 mm 4 m/s 757 mmHg 13%
    10:00 +34°C° 0 mm 5 m/s 757 mmHg 10%
    11:00 +37°C° 0 mm 5 m/s 757 mmHg 7%
    12:00 +39°C° 0 mm 5 m/s 756 mmHg 7%
    13:00 +40°C° 0 mm 4 m/s 755 mmHg 6%
    14:00 +42°C° 0 mm 4 m/s 754 mmHg 6%
    15:00 +39°C° 0 mm 3 m/s 754 mmHg 6%
    16:00 +38°C° 0 mm 3 m/s 754 mmHg 7%
    17:00 +37°C° 0 mm 2 m/s 754 mmHg 7%
    18:00 +35°C° 0 mm 2 m/s 755 mmHg 9%
    19:00 +31°C° 0 mm 2 m/s 755 mmHg 11%
    20:00 +29°C° 0 mm 2 m/s 756 mmHg 13%
    21:00 +27°C° 0 mm 2 m/s 756 mmHg 24%
    22:00 +26°C° 0 mm 2 m/s 756 mmHg 34%
    23:00 +24°C° 0 mm 2 m/s 757 mmHg 45%

    11 Decembrie, Miercuri

    Timp Temperatura Precipitaţii Vânt Presiune Umiditate
    00:00 +24°C° 0 mm 2 m/s 756 mmHg 51%
    01:00 +23°C° 0 mm 1 m/s 756 mmHg 57%
    02:00 +23°C° 0 mm 1 m/s 756 mmHg 63%
    03:00 +23°C° 0 mm 1 m/s 756 mmHg 61%
    04:00 +23°C° 0 mm 1 m/s 756 mmHg 58%
    05:00 +20°C° 0 mm 0 m/s 756 mmHg 56%
    06:00 +24°C° 0 mm 1 m/s 756 mmHg 49%
    07:00 +25°C° 0 mm 1 m/s 757 mmHg 42%
    08:00 +27°C° 0 mm 1 m/s 757 mmHg 35%
    09:00 +30°C° 0 mm 2 m/s 757 mmHg 27%
    10:00 +34°C° 0 mm 3 m/s 756 mmHg 18%
    11:00 +38°C° 0 mm 4 m/s 756 mmHg 9%
    12:00 +40°C° 0 mm 4 m/s 756 mmHg 8%
    13:00 +41°C° 0 mm 4 m/s 755 mmHg 7%
    14:00 +42°C° 0 mm 4 m/s 754 mmHg 5%
    15:00 +40°C° 0 mm 3 m/s 754 mmHg 6%
    16:00 +39°C° 0 mm 2 m/s 754 mmHg 7%
    17:00 +37°C° 0 mm 2 m/s 754 mmHg 7%
    18:00 +34°C° 0 mm 2 m/s 754 mmHg 14%
    19:00 +30°C° 0 mm 2 m/s 755 mmHg 20%
    20:00 +27°C° 0 mm 2 m/s 756 mmHg 27%
    21:00 +26°C° 0 mm 2 m/s 756 mmHg 33%
    22:00 +25°C° 0 mm 1 m/s 756 mmHg 40%
    23:00 +24°C° 0 mm 1 m/s 756 mmHg 46%

    12 Decembrie, Joi

    Timp Temperatura Precipitaţii Vânt Presiune Umiditate
    00:00 +24°C° 0 mm 1 m/s 756 mmHg 43%
    01:00 +23°C° 0 mm 1 m/s 756 mmHg 39%
    02:00 +23°C° 0 mm 1 m/s 756 mmHg 36%
    03:00 +23°C° 0 mm 2 m/s 756 mmHg 33%
    04:00 +23°C° 0 mm 2 m/s 756 mmHg 30%
    05:00 +21°C° 0 mm 2 m/s 756 mmHg 26%
    06:00 +24°C° 0 mm 3 m/s 756 mmHg 23%
    07:00 +25°C° 0 mm 3 m/s 756 mmHg 20%
    08:00 +27°C° 0 mm 3 m/s 757 mmHg 17%
    09:00 +30°C° 0 mm 4 m/s 757 mmHg 14%
    10:00 +34°C° 0 mm 5 m/s 757 mmHg 11%
    11:00 +37°C° 0 mm 5 m/s 756 mmHg 9%
    12:00 +39°C° 0 mm 5 m/s 756 mmHg 8%
    13:00 +41°C° 0 mm 4 m/s 755 mmHg 7%
    14:00 +42°C° 0 mm 4 m/s 754 mmHg 6%
    15:00 +40°C° 0 mm 3 m/s 754 mmHg 7%
    16:00 +39°C° 0 mm 3 m/s 754 mmHg 7%
    17:00 +37°C° 0 mm 2 m/s 754 mmHg 8%
    18:00 +35°C° 0 mm 2 m/s 755 mmHg 11%
    19:00 +31°C° 0 mm 2 m/s 755 mmHg 13%
    20:00 +28°C° 0 mm 2 m/s 756 mmHg 16%
    21:00 +27°C° 0 mm 2 m/s 756 mmHg 21%
    22:00 +25°C° 0 mm 1 m/s 756 mmHg 27%
    23:00 +24°C° 0 mm 1 m/s 757 mmHg 32%
    Arată mai mult